Starlink 4349

operational
NORAD ID: 53044 Int'l Des: 2022-077 Owner: SPXS Country: US Constellation: starlink
LEOCIRCULARRETROGRADESSO

About Starlink 4349

Description loading...

Live Position

Loading 3D Globe...

Upcoming Passes

Altitude History

Altitude vs Time

uPlot chart will show altitude changes over time

Two-Line Element Set

1 53044U 22077B 25304.73342192 .00000230 00000-0 22449-4 0 9999
2 53044 97.6021 123.9556 0000289 150.5093 209.6147 15.01261316181573
Epoch: Oct 31, 2025 • Age: 25 hours

Current Status

Altitude 571.7 km
Velocity 7.58 km/s
Sub-Earth Point 53.92°N, 1.86°E
Launch Date Jul 11, 2022
Age 3.3 years
Type internet

Technical Details

Classification Payload
Mass 297.00 kg
Dry Mass 275.00 kg
Total Mass 297.00 kg
Length 0.20 m
Diameter 2.80 m
Span 9.00 m
Shape Box + pan
Manufacturer SPXS
Bus Type Starlink
Phase Status In Orbit
Owner/State SPXS/US

Large Constellations

Loading constellations...